Tiempo cada hora Vigo

Hoy, 20 Octubre, Martes

Tiempo Temperatura Precipitaciones Viento Presión Humedad
00:00 +16°C° 0.1 mm 3 mps 748 mmHg 97%
01:00 +16°C° 0.1 mm 3 mps 747 mmHg 96%
02:00 +14°C° 0.1 mm 4 mps 747 mmHg 96%
03:00 +14°C° 0.1 mm 4 mps 747 mmHg 96%
04:00 +14°C° 0.1 mm 4 mps 747 mmHg 95%
05:00 +14°C° 0.1 mm 4 mps 747 mmHg 95%
06:00 +15°C° 0 mm 4 mps 746 mmHg 92%
07:00 +15°C° 0 mm 4 mps 746 mmHg 89%
08:00 +17°C° 0 mm 4 mps 746 mmHg 86%
09:00 +17°C° 0.1 mm 4 mps 745 mmHg 84%
10:00 +16°C° 0.1 mm 5 mps 744 mmHg 82%
11:00 +16°C° 0.1 mm 6 mps 744 mmHg 79%
12:00 +17°C° 0.3 mm 4 mps 743 mmHg 82%
13:00 +16°C° 0.3 mm 3 mps 742 mmHg 84%
14:00 +16°C° 0.3 mm 1 mps 741 mmHg 86%
15:00 +16°C° 0.7 mm 2 mps 741 mmHg 89%
16:00 +14°C° 0.7 mm 3 mps 741 mmHg 93%
17:00 +14°C° 0.7 mm 4 mps 741 mmHg 96%
18:00 +14°C° 1.6 mm 4 mps 742 mmHg 96%
19:00 +14°C° 1.6 mm 4 mps 742 mmHg 96%
20:00 +14°C° 1.6 mm 4 mps 742 mmHg 96%
21:00 +14°C° 0.9 mm 4 mps 742 mmHg 95%
22:00 +14°C° 0.9 mm 4 mps 742 mmHg 94%
23:00 +15°C° 0.9 mm 4 mps 742 mmHg 94%

Mañana, 21 Octubre, Miércoles

Tiempo Temperatura Precipitaciones Viento Presión Humedad
00:00 +14°C° 1.6 mm 4 mps 743 mmHg 94%
01:00 +14°C° 1.6 mm 4 mps 743 mmHg 94%
02:00 +14°C° 1.6 mm 4 mps 743 mmHg 94%
03:00 +14°C° 1 mm 4 mps 744 mmHg 95%
04:00 +14°C° 1 mm 4 mps 744 mmHg 95%
05:00 +14°C° 1 mm 3 mps 744 mmHg 95%
06:00 +14°C° 0.7 mm 3 mps 745 mmHg 94%
07:00 +16°C° 0.7 mm 3 mps 745 mmHg 92%
08:00 +16°C° 0.7 mm 3 mps 746 mmHg 91%
09:00 +17°C° 0.5 mm 3 mps 746 mmHg 88%
10:00 +17°C° 0.5 mm 3 mps 746 mmHg 85%
11:00 +18°C° 0.5 mm 3 mps 747 mmHg 82%
12:00 +18°C° 0.2 mm 3 mps 747 mmHg 80%
13:00 +18°C° 0.2 mm 3 mps 747 mmHg 79%
14:00 +18°C° 0.2 mm 3 mps 747 mmHg 78%
15:00 +17°C° 0.7 mm 3 mps 747 mmHg 83%
16:00 +16°C° 0.7 mm 2 mps 748 mmHg 88%
17:00 +15°C° 0.7 mm 2 mps 748 mmHg 93%
18:00 +14°C° 0.5 mm 2 mps 749 mmHg 93%
19:00 +14°C° 0.5 mm 2 mps 749 mmHg 93%
20:00 +13°C° 0.5 mm 2 mps 750 mmHg 94%
21:00 +13°C° 0.2 mm 2 mps 750 mmHg 94%
22:00 +12°C° 0.2 mm 3 mps 750 mmHg 95%
23:00 +11°C° 0.2 mm 3 mps 751 mmHg 95%

Pasado mañana, 22 Octubre, Jueves

Tiempo Temperatura Precipitaciones Viento Presión Humedad
00:00 +11°C° 0.1 mm 3 mps 751 mmHg 95%
01:00 +11°C° 0.1 mm 3 mps 751 mmHg 96%
02:00 +11°C° 0.1 mm 3 mps 751 mmHg 96%
03:00 +11°C° 0.1 mm 4 mps 751 mmHg 96%
04:00 +11°C° 0.1 mm 4 mps 752 mmHg 96%
05:00 +10°C° 0.1 mm 4 mps 752 mmHg 95%
06:00 +11°C° 0.1 mm 4 mps 753 mmHg 93%
07:00 +13°C° 0.1 mm 4 mps 753 mmHg 90%
08:00 +14°C° 0.1 mm 4 mps 754 mmHg 87%
09:00 +15°C° 0.1 mm 4 mps 754 mmHg 82%
10:00 +17°C° 0.1 mm 4 mps 754 mmHg 76%
11:00 +18°C° 0.1 mm 4 mps 754 mmHg 71%
12:00 +18°C° 0.2 mm 4 mps 754 mmHg 70%
13:00 +18°C° 0.2 mm 4 mps 754 mmHg 70%
14:00 +18°C° 0.2 mm 4 mps 754 mmHg 70%
15:00 +17°C° 0.1 mm 3 mps 755 mmHg 77%
16:00 +14°C° 0.1 mm 3 mps 755 mmHg 84%
17:00 +14°C° 0.1 mm 2 mps 756 mmHg 91%
18:00 +13°C° 0 mm 2 mps 756 mmHg 92%
19:00 +13°C° 0 mm 2 mps 757 mmHg 92%
20:00 +12°C° 0 mm 2 mps 757 mmHg 93%
21:00 +12°C° 0 mm 2 mps 758 mmHg 92%
22:00 +12°C° 0 mm 2 mps 758 mmHg 92%
23:00 +12°C° 0 mm 2 mps 758 mmHg 92%

23 Octubre, Viernes

Tiempo Temperatura Precipitaciones Viento Presión Humedad
00:00 +12°C° 0 mm 1 mps 758 mmHg 92%
01:00 +11°C° 0 mm 1 mps 758 mmHg 91%
02:00 +11°C° 0 mm 1 mps 758 mmHg 91%
03:00 +11°C° 0 mm 1 mps 759 mmHg 91%
04:00 +11°C° 0 mm 1 mps 759 mmHg 91%
05:00 +11°C° 0 mm 1 mps 760 mmHg 91%
06:00 +12°C° 0 mm 1 mps 760 mmHg 87%
07:00 +14°C° 0 mm 1 mps 761 mmHg 84%
08:00 +14°C° 0 mm 0 mps 761 mmHg 80%
09:00 +16°C° 0 mm 1 mps 761 mmHg 76%
10:00 +18°C° 0 mm 1 mps 761 mmHg 72%
11:00 +18°C° 0 mm 2 mps 762 mmHg 67%
12:00 +18°C° 0 mm 2 mps 762 mmHg 66%
13:00 +17°C° 0 mm 2 mps 762 mmHg 65%
14:00 +17°C° 0 mm 2 mps 762 mmHg 64%
15:00 +16°C° 0 mm 2 mps 762 mmHg 70%
16:00 +14°C° 0 mm 1 mps 762 mmHg 77%
17:00 +12°C° 0 mm 1 mps 762 mmHg 83%
18:00 +12°C° 0 mm 1 mps 762 mmHg 85%
19:00 +11°C° 0 mm 1 mps 762 mmHg 86%
20:00 +11°C° 0 mm 1 mps 763 mmHg 88%
21:00 +11°C° 0 mm 1 mps 763 mmHg 88%
22:00 +10°C° 0 mm 1 mps 763 mmHg 88%
23:00 +10°C° 0 mm 1 mps 763 mmHg 88%

24 Octubre, Sábado

Tiempo Temperatura Precipitaciones Viento Presión Humedad
00:00 +10°C° 0 mm 1 mps 762 mmHg 89%
01:00 +10°C° 0 mm 1 mps 762 mmHg 89%
02:00 +9°C° 0 mm 2 mps 762 mmHg 90%
03:00 +9°C° 0 mm 2 mps 762 mmHg 90%
04:00 +9°C° 0 mm 2 mps 762 mmHg 91%
05:00 +9°C° 0 mm 2 mps 762 mmHg 92%
06:00 +10°C° 0 mm 2 mps 761 mmHg 86%
07:00 +13°C° 0 mm 2 mps 761 mmHg 80%
08:00 +14°C° 0 mm 2 mps 761 mmHg 75%
09:00 +14°C° 0 mm 3 mps 761 mmHg 69%
10:00 +17°C° 0 mm 4 mps 760 mmHg 63%
11:00 +18°C° 0 mm 4 mps 760 mmHg 57%
12:00 +17°C° 0 mm 5 mps 759 mmHg 59%
13:00 +17°C° 0 mm 5 mps 759 mmHg 61%
14:00 +17°C° 0 mm 5 mps 758 mmHg 63%
15:00 +15°C° 0 mm 5 mps 758 mmHg 71%
16:00 +13°C° 0 mm 5 mps 758 mmHg 79%
17:00 +12°C° 0 mm 5 mps 757 mmHg 87%
18:00 +12°C° 0 mm 5 mps 757 mmHg 86%
19:00 +12°C° 0 mm 5 mps 757 mmHg 86%
20:00 +12°C° 0 mm 5 mps 757 mmHg 85%
21:00 +12°C° 0.1 mm 5 mps 756 mmHg 84%
22:00 +12°C° 0.1 mm 5 mps 755 mmHg 84%
23:00 +11°C° 0.1 mm 6 mps 754 mmHg 83%

25 Octubre, Domingo

Tiempo Temperatura Precipitaciones Viento Presión Humedad
00:00 +11°C° 0.3 mm 6 mps 754 mmHg 84%
01:00 +11°C° 0.3 mm 6 mps 753 mmHg 84%
02:00 +12°C° 0.3 mm 7 mps 752 mmHg 85%
03:00 +11°C° 1.4 mm 6 mps 752 mmHg 87%
04:00 +11°C° 1.4 mm 6 mps 752 mmHg 90%
05:00 +11°C° 1.4 mm 6 mps 752 mmHg 92%
06:00 +10°C° 5.3 mm 5 mps 753 mmHg 94%
07:00 +11°C° 5.3 mm 4 mps 753 mmHg 95%
08:00 +10°C° 5.3 mm 4 mps 754 mmHg 96%
09:00 +11°C° 0.8 mm 3 mps 754 mmHg 93%
10:00 +11°C° 0.8 mm 3 mps 755 mmHg 89%
11:00 +13°C° 0.8 mm 2 mps 756 mmHg 85%
12:00 +12°C° 0.5 mm 3 mps 756 mmHg 84%
13:00 +13°C° 0.5 mm 4 mps 756 mmHg 83%
14:00 +13°C° 0.5 mm 5 mps 756 mmHg 82%
15:00 +12°C° 0.7 mm 5 mps 756 mmHg 85%
16:00 +11°C° 0.7 mm 4 mps 757 mmHg 88%
17:00 +10°C° 0.7 mm 4 mps 757 mmHg 92%
18:00 +10°C° 0.5 mm 4 mps 758 mmHg 92%
19:00 +10°C° 0.5 mm 4 mps 758 mmHg 93%
20:00 +8°C° 0.5 mm 4 mps 759 mmHg 93%
21:00 +9°C° 0.3 mm 3 mps 759 mmHg 94%
22:00 +9°C° 0.3 mm 3 mps 760 mmHg 94%
23:00 +9°C° 0.3 mm 3 mps 760 mmHg 94%

26 Octubre, Lunes

Tiempo Temperatura Precipitaciones Viento Presión Humedad
00:00 +9°C° 0.1 mm 2 mps 760 mmHg 94%
01:00 +9°C° 0.1 mm 2 mps 760 mmHg 94%
02:00 +9°C° 0.1 mm 2 mps 760 mmHg 94%
03:00 +9°C° 0.1 mm 2 mps 761 mmHg 94%
04:00 +9°C° 0.1 mm 2 mps 761 mmHg 94%
05:00 +9°C° 0.1 mm 2 mps 761 mmHg 93%
06:00 +10°C° 0.1 mm 2 mps 761 mmHg 92%
07:00 +12°C° 0.1 mm 2 mps 762 mmHg 91%
08:00 +13°C° 0.1 mm 2 mps 762 mmHg 90%
09:00 +14°C° 0.1 mm 2 mps 762 mmHg 84%
10:00 +15°C° 0.1 mm 2 mps 762 mmHg 79%
11:00 +16°C° 0.1 mm 1 mps 762 mmHg 74%
12:00 +16°C° 0.1 mm 2 mps 762 mmHg 74%
13:00 +16°C° 0.1 mm 2 mps 762 mmHg 73%
14:00 +16°C° 0.1 mm 2 mps 762 mmHg 72%
15:00 +15°C° 0 mm 2 mps 762 mmHg 78%
16:00 +14°C° 0 mm 1 mps 762 mmHg 84%
17:00 +12°C° 0 mm 1 mps 762 mmHg 89%
18:00 +12°C° 0 mm 1 mps 762 mmHg 91%
19:00 +12°C° 0 mm 1 mps 762 mmHg 92%
20:00 +11°C° 0 mm 1 mps 762 mmHg 93%
21:00 +11°C° 0 mm 1 mps 762 mmHg 94%
22:00 +11°C° 0 mm 1 mps 762 mmHg 94%
23:00 +11°C° 0 mm 1 mps 762 mmHg 95%
Mostrar más

Necesitamos Su Consentimiento

Meteoprog y nuestros Proveedores de Servicios pueden almacenar y acceder a sus datos personales como cookies, identificadores de dispositivo u otras tecnologías similares de su dispositivo y procesar dichos datos para personalizar contenido y anuncios, además de ofrecer funciones de redes sociales y analizar el tráfico.

  • Almacenar y/o acceder a información en su dispositivo

    Se puede almacenar o acceder a cookies, identificadores de dispositivo u otra información de su dispositivo para los fines anteriormente indicados.

  • Anuncios y contenido personalizados, medición de anuncios y contenido, percepciones del público, y desarrollo de productos

    Los anuncios y el contenido pueden personalizarse en base a su perfil. Se pueden añadir más datos para personalizar mejor los anuncios y contenidos. Se puede medir el rendimiento de los anuncios y contenidos. Se puede obtener la percepción sobre el público que ha visto los anuncios y contenidos. Dichos datos pueden usarse para desarrollar o mejorar la experiencia del usuario, sistemas y software.

Al hacer clic en ‘Estoy De Acuerdo’ usted permitirá el uso de las cookies, identificadores de dispositivo, balizas web u otras tecnologías similares indicadas. Su configuración puede cambiarse desde el navegador de su dispositivo.

Para ciertos fines, los intereses legítimos pueden ser considerados por encima del consentimiento. Puede leer más sobre ello en nuestra Política de Privacidad y Cookies.